Regional Weather Roundup
Issued by NWS Newport/Morehead, NC

Current Version | Previous Version | Graphics & Text | Print | Product List | Glossary Off
Versions: 1 2 3 4 5 6 7 8 9 10 11 12 13 14 15 16 17 18 19 20 21 22 23 24 25 26 27 28 29 30 31 32 33 34 35 36 37 38 39 40 41 42 43 44 45 46 47 48 49 50

339
ASUS42 KMHX 240713
RWRMHX
WEATHER ROUNDUP FOR EASTERN NORTH CAROLINA
NATIONAL WEATHER SERVICE NEWPORT/MOREHEAD CITY NC
300 AM EDT MON APR 24 2017

NOTE: "FAIR" INDICATES FEW OR NO CLOUDS BELOW 12,000 FEET
WITH NO SIGNIFICANT WEATHER AND/OR OBSTRUCTIONS TO VISIBILITY

NCZ015>017-031-032-045>047-102-103-240800-
NORTH COAST

CITY           SKY/WX    TMP DP  RH WIND       PRES   REMARKS
EDENTON        CLOUDY    59  56  90 NE9       29.91F
ELIZABETH CITY LGT RAIN  59  58  96 NE20      29.92F
KITTY HAWK     CLOUDY    58  57  99 NE6       29.89F
MANTEO         CLOUDY    58  57  96 NE13      29.90F

$$

NCZ045>047-081-094-103-104-240800-
CENTRAL COAST

CITY           SKY/WX    TMP DP  RH WIND       PRES   REMARKS
FRISCO         CLOUDY    65  63  93 NE6       29.87F FOG

$$

NCZ095-097-098-100-101-240800-
SOUTHERN COAST

CITY           SKY/WX    TMP DP  RH WIND       PRES   REMARKS
BEAUFORT       CLOUDY    66  66 100 VRB5      29.86F
CEDAR ISLAND   NOT AVBL
JACKSONVILLE   CLOUDY    61  61 100 NE12      29.85F
PINEY ISLAND   CLOUDY   N/A N/A N/A NE12      29.86F
WILMINGTON     LGT RAIN  62  62 100 NE10      29.82F


$$

NCZ011>013-027>030-043-044-078>080-089-090>093-098-240800-
COASTAL PLAIN

CITY           SKY/WX    TMP DP  RH WIND       PRES   REMARKS
AHOSKIE        HVY RAIN  53  52  97 NE7       29.93F
CLINTON        CLOUDY    57  57 100 NE5       29.87S FOG
ELIZABETHTOWN  CLOUDY    58  58 100 CALM      29.84F
GOLDSBORO      CLOUDY    55  55 100 NE8       29.87S FOG
GREENVILLE     CLOUDY    55  55 100 NE6       29.92F
HAVELOCK       NOT AVBL
KENANSVILLE    CLOUDY    57  57 100 E5        29.87S FOG
KINSTON        CLOUDY    58  58  99 NE9       29.89S
NEW BERN       LGT RAIN  60  60 100 NE12      29.88F
RICHLANDS      CLOUDY    59  58  96 NE10      29.87F
ROCKY MOUNT    CLOUDY    53  53 100 NE7       29.91F FOG
WASHINGTON     CLOUDY    57  56  97 NE9       29.89F
WHITEVILLE     CLOUDY    59  58  97 NE6       29.81F FOG

$$

AMZ130-135-150-152-154-156-158-170-250-252-270-ANZ085-086-088-633-658-670-240800-
MARINE OBSERVATIONS

STATION/POSITION TIME  TEMP    WIND        PRES    WAVE   SWELL
                       AIR SEA DIR/SP/G            HT/PER HT/PER
                 (UTC) (F)     (DEG/KT/KT) (MB)    (FT/S) (FT/S)
CHESAPEAKE LIGHT NOT AVBL
64 E VA BEACH    0650   58 53   80/ 17/ 19 1014.0    6/ 8   3/ 8
DUCK             0648   58 62   50/ 22/ 24 1011.9
2 E DUCK         0630      59                N/A     6/ 7   2/11
OREGON INLET     0642   59 58   40/ 10/ 12 1011.9
13E OREGON INLT  0648      55                N/A     6/11   7/11
HATTERAS CG      0648   66 67   60/  7/  8 1011.0
DIAMOND BUOY     0650   72 79  120/  8/ 12 1011.4    8/11   8/11
CAPE LOOKOUT     0700   66      30/  4/  7 1010.3
BEAUFORT LAB     0648   65 66   40/  8/ 13 1010.1
30 SE NEW RVR IN 0608   68     190/ 12/ 17 1011.1
30 SE NEW RVR IN 0643      71                N/A     5/ 6   2/12
27 SE WRIGHTSVLE 0608   71 71  130/ 12/ 17 1009.6
5 SE WRIGHTSVLE  0608   67 69   70/ 14/ 25 1010.0
225 S CAPE HAT   0650   73 75  140/ 19/ 25 1011.2    6/ 6   2/11
41 SE CHARLESTON 0650   73 74  160/ 21/ 25 1006.8    6/ 5   2/11

$$




USA.gov is the U.S. government's official web portal to all federal, state and local government web resources and services.